GFSSGP_925_spd_057.txt.gz
Wind_Speed
8 7 6 6 6 3 1 4 2 6 4 4 3 2 7 7 6 4 17 11 17 19 16 15 13 13 12 14 15 15 13 15 16 16 16 16 17 17 17 17 19 17 20 20 20 20 19 20 20
6 6 5 4 5 4 5 5 6 6 6 4 3 2 2 5 5 10 15 12 17 16 15 14 15 15 13 15 16 15 12 15 16 16 16 17 17 17 17 18 20 18 18 19 19 18 18 19 20
5 5 8 3 3 4 4 4 6 6 5 4 3 2 3 5 5 17 12 17 17 15 15 15 16 14 14 15 15 14 11 14 15 15 16 17 17 17 18 18 19 18 19 18 17 17 19 20 21
4 6 4 7 3 4 3 3 7 9 4 3 1 4 3 4 13 8 17 19 17 15 14 15 16 16 14 15 15 14 11 13 15 15 15 16 17 17 17 18 18 18 18 17 18 18 19 20 19
4 4 5 3 3 1 2 2 6 7 6 7 5 4 2 7 7 10 16 18 17 16 15 17 17 16 15 15 15 14 12 12 15 14 15 15 16 17 17 18 18 18 18 18 17 19 19 19 20
5 4 5 6 2 1 2 5 7 7 3 6 5 3 5 12 11 13 16 18 16 16 15 15 17 15 14 15 15 14 13 12 13 14 14 14 15 17 17 18 18 18 18 18 19 19 20 20 22
8 6 7 3 3 3 3 6 8 7 4 6 2 4 5 13 13 15 16 17 16 16 16 16 15 15 16 15 15 15 14 14 12 13 14 14 15 16 17 18 18 18 18 19 19 19 20 21 22
5 6 6 6 4 3 6 8 4 6 5 3 2 3 5 16 16 16 17 17 17 16 16 17 18 16 14 15 15 14 14 14 14 14 14 14 15 16 16 17 17 17 18 17 18 19 20 22 23
3 8 8 7 5 3 7 9 4 2 6 3 5 3 3 20 18 16 16 16 18 18 18 17 18 17 17 15 15 16 15 15 15 15 15 15 14 15 13 14 16 16 17 17 18 19 19 20 20
6 9 8 4 3 3 8 10 8 6 10 10 8 6 7 17 20 19 19 21 19 20 21 20 19 18 18 17 16 15 15 16 16 16 17 13 13 11 13 15 16 16 17 17 19 22 19 14 12
3 10 1 2 1 2 6 8 3 8 12 11 11 13 13 18 20 21 23 23 24 21 21 20 19 18 17 17 16 16 16 16 18 19 18 16 16 17 13 16 16 17 17 19 19 13 10 10 10
7 3 2 1 2 2 4 2 6 13 13 5 8 4 18 17 20 23 24 25 23 24 24 21 21 19 21 18 18 17 18 18 19 20 21 18 18 19 16 16 16 16 13 15 14 13 13 12 12
8 3 3 3 2 2 3 7 8 13 14 6 2 4 14 15 20 21 22 22 23 24 25 25 25 22 20 20 24 20 18 17 16 18 21 20 20 21 19 20 21 19 19 16 12 15 15 14 12
2 4 4 4 4 3 5 8 2 8 12 14 12 11 12 15 20 20 22 24 25 25 24 24 31 23 21 21 23 26 24 16 18 19 20 21 22 25 22 23 21 20 21 18 15 14 15 15 13
2 5 6 9 6 3 3 11 17 14 4 9 16 14 15 15 18 23 25 25 27 27 25 26 26 32 24 22 21 21 23 28 23 17 18 21 22 26 26 26 24 22 24 20 21 18 17 17 13
5 4 8 7 7 4 4 13 2 2 9 13 15 14 15 17 20 21 23 25 26 26 27 26 26 26 27 24 22 21 21 22 24 23 19 21 23 26 27 29 29 26 25 26 24 21 20 21 16
7 8 12 6 6 2 11 9 2 2 7 12 13 14 15 16 19 22 23 25 26 28 27 28 27 26 26 24 22 21 21 24 25 25 23 21 25 27 28 30 32 29 30 28 27 24 23 25 21
9 10 6 8 5 6 11 16 18 11 9 12 14 15 14 16 19 24 25 25 26 27 28 28 28 26 25 22 21 20 21 23 24 25 25 23 27 29 27 31 34 33 34 31 29 25 21 26 25
5 6 7 2 3 4 12 18 19 17 16 18 19 19 19 20 19 22 23 25 25 26 28 30 29 27 26 25 23 22 23 22 23 27 26 24 24 29 30 31 33 36 36 35 33 28 27 24 28
9 12 13 8 1 3 13 22 18 20 21 19 21 20 20 19 18 17 20 22 27 30 31 29 30 29 30 25 23 19 20 21 22 25 28 29 28 31 33 33 36 39 37 38 36 36 29 16 31
12 13 11 8 4 12 11 18 15 12 13 15 20 21 21 19 18 16 17 22 23 28 31 34 34 32 30 28 23 21 14 16 20 25 34 37 33 33 33 33 36 40 43 43 42 42 36 24 29
14 8 12 6 5 6 1 9 18 17 17 13 17 16 18 16 14 14 14 18 24 27 28 28 28 30 30 30 26 28 26 21 23 25 33 36 34 33 33 35 37 43 45 45 45 45 40 30 31
2 3 4 3 5 9 13 7 9 11 10 15 16 14 12 11 9 9 10 14 17 20 21 23 24 26 27 29 30 28 26 21 16 19 26 34 33 34 37 38 38 42 42 44 46 43 40 35 33
12 7 3 1 3 8 12 12 12 14 10 6 6 3 3 3 1 3 5 6 11 14 18 20 23 26 27 28 29 28 25 23 20 19 22 35 34 37 37 38 39 39 42 45 45 47 41 35 32
10 7 4 5 5 9 5 6 14 13 12 10 10 14 6 2 5 5 6 8 9 13 15 18 20 23 23 25 26 27 25 23 24 21 23 27 34 38 39 39 39 40 40 41 42 43 39 38 32
15 13 7 6 7 10 3 9 6 7 10 11 12 12 11 7 7 8 8 7 8 10 12 14 17 19 21 23 25 27 27 27 27 25 24 29 32 39 41 40 39 39 40 38 38 38 39 39 35
7 10 10 9 3 4 9 19 19 11 11 14 16 13 13 10 7 7 6 5 4 7 9 12 13 16 19 22 24 26 26 27 26 24 26 25 27 27 34 39 41 40 39 40 40 37 38 35 35
7 3 7 6 6 9 14 18 13 6 9 6 7 6 6 4 4 3 4 2 2 3 5 9 12 14 15 18 21 24 26 27 27 24 26 26 25 26 31 35 39 41 40 40 40 37 31 31 30
7 7 6 4 7 7 11 11 9 5 2 1 1 1 3 6 5 3 2 2 4 4 5 8 10 12 14 17 19 22 25 27 27 28 27 28 28 32 33 34 36 39 39 38 37 35 32 32 32
14 18 19 7 6 6 6 16 6 1 1 2 2 3 4 2 2 0 2 5 6 7 9 12 13 14 17 17 19 21 23 25 28 29 28 26 29 33 33 34 33 36 38 37 37 36 36 34 36

GFSSGP_925_spd_060.txt.gz
Wind_Speed
7 11 9 6 2 3 4 5 8 7 4 3 8 5 5 8 5 4 23 18 23 19 20 16 14 12 12 13 14 11 13 15 14 14 15 15 16 16 16 18 20 22 20 19 18 19 20 21 23
6 7 5 3 3 2 4 9 6 8 8 8 5 2 1 5 7 11 12 22 23 19 17 16 15 14 14 14 14 11 13 15 15 15 15 15 16 17 17 17 19 20 19 18 18 18 20 21 25
6 3 2 3 3 5 5 3 9 8 6 3 4 2 5 4 11 17 17 22 23 20 15 16 16 15 15 14 15 12 13 15 15 15 15 16 16 17 17 17 18 19 18 17 18 18 20 22 25
4 4 4 2 3 7 7 5 12 8 4 4 4 7 5 6 16 13 21 21 19 18 18 16 17 16 16 16 15 12 12 15 14 14 15 16 16 17 18 17 18 17 18 17 18 18 18 21 25
3 4 4 4 4 5 5 7 9 6 8 7 2 4 4 7 14 19 20 20 19 19 17 16 18 17 16 16 15 13 12 14 14 14 15 16 16 17 18 17 17 17 18 18 18 18 19 22 23
2 2 4 4 7 7 4 5 6 6 6 6 2 4 5 12 12 19 19 18 21 21 16 19 18 16 16 16 15 14 12 13 14 14 15 16 16 17 18 18 18 18 18 18 19 18 21 23 21
2 3 7 6 4 4 6 5 3 5 8 6 3 1 4 15 16 17 19 18 20 17 14 18 19 17 15 16 15 15 14 13 13 14 14 16 17 17 17 17 18 18 18 18 18 19 21 22 21
2 2 9 3 3 2 6 6 1 4 4 2 3 3 5 15 18 19 18 18 18 20 18 16 17 18 17 17 16 15 15 14 13 13 14 15 16 17 17 17 17 17 17 18 18 20 22 24 21
1 2 6 7 3 1 8 5 2 3 5 1 5 3 3 24 19 18 19 19 18 20 18 19 18 16 17 18 18 16 16 15 14 14 14 15 17 17 14 16 16 16 16 17 17 20 22 22 21
3 3 7 7 7 5 7 6 9 3 6 5 5 8 11 22 19 15 13 19 20 21 20 20 21 20 19 17 19 19 18 18 18 16 17 13 16 13 15 16 16 16 16 18 20 20 18 18 20
4 3 6 6 7 8 2 4 1 6 5 8 9 13 11 18 20 19 17 17 19 16 21 22 21 22 23 23 20 19 19 20 19 16 19 17 17 15 16 16 16 16 18 21 20 16 13 11 12
2 2 3 4 4 2 3 4 4 7 4 4 7 15 16 11 16 22 24 24 25 24 24 21 21 23 23 22 20 22 21 20 21 20 20 21 21 19 19 17 16 17 18 19 14 14 15 15 15
4 2 3 6 2 4 5 5 5 7 11 6 5 8 12 11 18 24 26 26 24 29 30 30 27 25 23 22 22 22 22 22 23 24 23 23 25 22 19 19 20 19 18 16 14 15 15 16 17
5 5 3 4 4 2 2 5 2 6 10 7 9 8 8 10 20 22 24 30 32 29 31 32 31 29 27 28 28 25 24 21 23 23 26 28 26 26 24 24 24 21 21 18 15 17 16 16 17
1 1 4 6 5 1 2 7 10 10 3 6 8 10 10 10 21 24 29 27 32 32 29 36 35 34 29 28 28 29 28 22 19 22 22 27 29 29 31 25 26 25 24 21 19 19 17 17 17
3 1 2 1 8 3 2 7 7 1 10 9 9 8 10 12 18 25 26 29 27 29 31 31 33 34 35 29 28 27 29 33 32 24 21 23 29 30 30 29 28 26 28 26 25 24 22 20 18
4 3 7 4 7 3 6 6 3 3 2 5 9 9 10 10 16 26 26 27 31 30 32 32 32 33 41 33 26 26 26 25 27 33 28 24 28 31 31 31 32 30 30 30 29 27 25 23 20
3 4 5 2 5 2 5 10 14 7 8 10 10 9 9 10 11 24 29 30 28 32 31 33 33 33 31 33 32 26 27 28 27 26 27 27 27 31 32 32 33 35 34 33 32 30 28 27 25
4 7 6 4 3 1 7 12 11 9 8 9 10 10 11 12 10 24 25 33 32 30 33 34 34 34 34 32 33 32 32 30 29 31 29 29 29 30 33 34 34 38 38 36 37 33 31 26 25
1 6 7 6 6 1 8 13 10 11 11 11 11 11 11 9 10 13 29 30 35 35 34 34 36 37 38 36 36 31 34 34 33 32 34 32 32 34 34 37 37 39 40 38 38 38 33 25 35
4 6 7 5 3 6 4 10 7 9 12 11 12 12 10 10 9 9 15 30 34 36 37 36 37 38 37 34 31 25 21 26 26 31 36 39 35 36 37 38 40 39 42 43 43 43 41 31 39
5 4 6 4 4 3 3 6 4 10 8 9 10 9 10 10 9 8 6 15 32 37 36 36 34 32 34 34 31 34 31 25 33 35 34 35 39 35 37 38 40 39 42 41 46 48 45 40 33
2 3 3 3 3 5 4 2 8 7 7 7 10 9 8 5 7 7 9 11 25 29 30 30 31 33 34 36 36 33 33 33 21 29 31 31 33 41 39 41 39 39 41 44 46 47 42 40 36
7 4 3 2 2 5 10 9 4 6 6 3 3 4 7 6 6 5 3 1 7 19 24 27 30 33 33 33 36 34 33 29 24 22 27 29 31 37 40 40 40 40 41 44 46 47 47 47 40
2 4 1 2 0 7 3 5 11 8 10 5 6 5 3 6 4 2 5 6 8 11 16 21 25 27 29 32 33 35 31 30 31 28 32 32 28 35 41 42 42 42 41 43 43 46 46 44 40
9 7 5 6 4 3 6 7 6 9 3 3 5 5 1 5 5 7 7 9 12 12 13 15 19 22 24 28 31 33 35 32 30 31 32 33 33 33 37 42 42 42 41 40 41 41 44 43 41
5 7 3 4 2 3 5 7 7 6 7 7 7 6 8 7 6 6 5 6 10 10 12 13 15 17 21 24 28 29 30 32 31 29 30 29 30 31 33 39 42 41 40 40 41 40 39 42 44
3 1 3 2 2 4 7 7 8 2 8 10 3 3 5 5 5 4 4 7 4 6 9 11 13 16 17 21 24 27 28 31 32 30 31 31 30 29 30 33 38 41 41 40 39 37 39 39 39
3 4 3 3 5 5 5 7 3 2 6 8 6 6 3 2 2 3 3 3 4 6 9 11 14 16 17 19 22 26 28 29 30 32 33 31 30 29 31 32 34 39 39 38 38 38 38 37 37
2 6 7 4 3 3 2 15 2 7 8 8 4 4 5 5 4 2 2 4 3 6 10 12 12 14 17 20 23 26 26 27 28 31 31 30 29 31 32 33 33 34 37 39 40 40 39 37 37

GFSSGP_925_spd_063.txt.gz
Wind_Speed
9 8 9 4 4 5 1 2 5 5 4 2 3 7 8 2 2 2 12 15 23 23 19 16 13 12 11 13 12 13 15 14 13 14 16 15 16 17 19 20 21 20 19 18 19 20 22 23 24
7 7 2 2 4 4 3 3 6 4 5 6 5 4 3 2 3 7 18 23 23 23 20 17 14 13 12 12 11 13 15 15 14 14 16 17 16 16 18 19 19 19 18 18 19 20 21 22 26
5 4 3 4 3 3 3 5 8 4 5 4 3 4 4 3 5 13 18 29 23 22 18 16 15 15 14 14 12 13 13 15 15 15 16 16 16 16 17 18 20 18 17 18 19 19 20 20 22
4 6 4 4 2 4 5 8 8 6 5 4 5 7 4 2 21 13 27 25 21 20 18 17 17 17 17 15 13 12 13 14 14 14 16 16 16 15 17 17 18 18 18 18 18 18 19 20 21
1 3 3 3 1 3 5 7 8 6 7 3 3 5 4 6 18 27 28 26 23 20 17 18 18 18 19 17 14 13 14 14 14 14 15 15 16 15 15 16 18 17 18 18 18 20 20 22 23
4 3 4 3 3 4 3 6 8 6 6 4 5 6 5 17 24 26 27 24 20 21 21 19 19 19 19 17 16 14 14 13 14 14 15 15 16 15 16 17 18 17 18 17 19 21 20 22 23
5 4 3 1 4 3 4 4 6 7 8 4 5 4 2 8 22 24 23 24 21 20 21 21 21 18 18 18 16 15 14 14 13 13 15 15 16 16 16 16 17 18 18 18 21 21 21 22 21
4 4 4 3 0 2 2 2 1 6 2 2 3 5 5 11 22 23 21 18 20 20 16 21 21 19 19 18 17 16 15 14 13 13 14 16 16 15 15 17 17 17 17 18 20 20 20 20 19
3 4 3 3 2 4 4 3 3 1 6 2 2 6 5 28 26 22 23 19 21 19 19 20 21 20 20 20 18 17 16 15 14 14 14 16 17 16 16 15 16 16 16 17 20 21 19 17 15
4 4 3 1 2 3 5 4 5 3 4 2 4 4 25 30 29 24 22 22 26 23 21 21 21 21 21 21 21 19 19 18 16 16 17 18 18 16 16 16 15 15 16 19 21 21 19 16 17
4 5 3 2 2 3 2 2 5 5 2 6 9 9 15 24 24 25 23 26 29 28 27 24 23 22 23 23 22 21 21 21 19 19 19 19 18 16 17 17 17 18 19 21 20 18 17 16 14
2 2 4 1 3 3 2 6 1 6 6 1 8 17 15 11 18 24 26 23 25 31 30 28 26 26 26 23 25 24 23 24 24 23 21 22 19 18 20 20 19 19 23 22 18 15 13 15 15
3 0 5 5 3 1 2 1 4 5 8 2 8 12 15 14 20 28 33 27 23 25 28 28 29 30 29 27 26 26 26 27 27 25 24 25 25 23 22 22 21 21 23 19 18 16 15 17 17
1 2 4 4 3 2 1 3 2 7 7 6 9 13 11 13 24 23 28 32 31 32 33 32 29 31 32 30 29 28 29 27 27 29 29 30 29 26 25 25 25 23 23 20 17 18 18 18 20
2 2 1 4 5 1 3 5 8 10 3 7 10 9 10 14 24 28 35 35 36 37 36 34 38 33 33 31 30 28 30 29 30 30 30 32 31 30 28 27 28 27 24 22 19 19 19 20 20
2 3 1 2 7 2 4 8 8 9 8 10 8 8 9 11 22 33 35 37 37 37 38 37 38 40 39 36 33 32 32 31 30 29 29 32 33 33 32 30 29 30 27 26 24 24 23 21 22
3 2 4 2 5 3 3 5 4 7 2 8 9 9 9 10 15 32 36 38 38 39 39 40 41 42 42 39 35 36 35 36 31 28 27 29 34 35 36 34 32 30 30 30 29 27 26 26 23
4 3 3 4 4 3 2 8 10 10 7 11 11 10 10 10 13 31 37 38 38 38 38 41 41 43 40 40 35 31 32 34 36 36 36 31 30 35 35 38 36 34 35 35 32 30 28 27 26
4 3 0 2 2 3 6 8 12 11 8 10 11 11 10 12 15 22 32 38 36 37 37 39 41 41 40 40 43 35 37 35 34 33 33 35 35 34 36 36 37 37 40 40 37 34 32 28 27
2 2 3 1 1 2 4 12 10 11 13 11 13 10 11 8 9 16 22 34 39 39 41 39 41 41 41 41 41 35 34 39 39 38 35 33 34 34 36 37 38 39 40 41 41 38 32 24 35
2 4 3 2 3 2 2 9 6 6 5 7 9 11 9 12 11 10 15 28 39 40 42 43 43 42 41 40 37 35 31 34 36 39 40 40 38 35 38 39 40 40 42 45 45 45 42 30 37
2 1 5 3 4 3 4 6 5 7 11 7 9 10 10 9 8 8 10 17 32 42 43 42 42 42 42 42 40 40 32 30 35 34 42 41 41 38 35 39 39 40 44 44 47 48 47 37 34
5 0 4 3 2 2 2 1 7 5 6 10 10 6 5 6 8 9 8 10 23 35 38 38 37 37 40 42 41 39 36 34 32 33 35 39 40 42 36 40 40 41 43 45 48 47 44 46 37
7 5 6 5 3 3 8 8 5 4 6 2 3 3 3 4 5 5 5 4 4 20 27 30 32 34 34 35 38 38 38 37 34 31 32 33 34 37 39 40 41 41 44 45 48 48 49 48 40
4 6 1 3 2 6 3 2 6 8 9 3 5 4 1 2 1 2 2 2 3 8 17 22 24 28 30 31 34 37 38 38 38 37 34 32 33 36 39 42 45 44 44 45 46 46 48 48 46
7 7 5 7 4 5 3 6 5 10 8 2 4 4 3 5 4 6 6 8 5 5 6 11 16 21 24 28 32 33 37 36 35 36 36 36 37 38 36 35 36 39 44 43 46 46 48 47 47
5 5 5 4 2 3 5 6 8 7 9 9 7 6 6 4 5 6 7 1 5 5 7 10 13 17 20 23 27 31 34 36 39 36 34 36 36 37 35 34 32 36 44 46 46 44 45 44 45
6 5 3 2 1 4 4 5 6 7 12 9 6 6 6 6 8 7 6 5 2 1 3 7 12 15 16 21 24 29 32 35 37 36 38 38 36 34 34 33 32 33 39 44 45 42 44 42 43
2 3 3 4 5 5 2 6 6 7 4 8 7 5 6 7 4 2 0 2 3 4 5 8 12 14 17 18 21 26 30 33 34 36 37 37 34 33 33 33 33 33 35 41 42 41 43 43 42
3 7 6 4 3 4 4 13 3 8 6 7 7 5 2 4 5 5 3 2 7 8 8 12 14 16 19 19 20 24 28 31 33 34 35 33 34 34 34 33 34 34 34 35 40 41 42 43 40

GFSSGP_925_spd_069.txt.gz
Wind_Speed
6 6 1 4 4 5 1 3 1 3 1 1 2 4 6 3 3 3 6 16 26 26 22 18 15 15 14 17 16 13 13 14 16 16 16 18 17 16 16 16 17 17 18 18 18 16 17 19 19
4 3 4 3 4 3 4 3 6 4 5 8 5 3 4 1 2 5 17 14 30 26 22 18 16 15 13 13 13 13 14 14 17 16 17 16 16 16 15 15 16 16 18 17 17 18 17 18 17
2 2 4 4 3 4 4 4 5 2 5 2 3 4 3 3 2 18 5 27 30 25 22 19 17 16 14 15 14 15 15 15 15 15 15 15 14 15 15 15 15 16 17 15 15 16 17 18 17
1 5 4 4 2 3 4 5 3 5 0 2 3 5 2 3 15 10 23 28 31 25 22 19 18 16 14 14 14 14 14 15 14 14 14 14 13 13 14 15 15 16 16 14 13 14 17 16 17
4 3 4 3 3 2 1 6 5 2 4 3 1 3 2 7 5 15 27 28 28 24 21 19 19 17 15 14 13 13 13 13 13 14 13 13 11 13 13 14 14 15 15 14 14 15 15 16 17
3 3 4 2 3 2 1 5 3 2 1 3 5 4 4 5 15 24 28 27 24 24 21 20 19 18 17 14 13 12 12 13 13 14 14 12 13 12 13 13 13 15 14 13 14 16 16 15 15
6 4 5 4 3 1 5 7 4 5 5 3 9 5 3 3 19 26 27 24 24 22 22 21 20 18 17 15 13 12 12 13 13 14 14 13 12 13 14 14 14 15 14 13 14 14 14 14 15
5 4 4 3 5 3 4 5 6 4 5 3 4 4 4 7 23 27 26 24 23 22 21 22 20 20 18 16 14 13 12 12 12 12 13 12 13 13 14 14 14 15 15 14 14 14 15 15 16
3 4 2 4 6 3 5 3 2 2 5 1 3 6 3 22 27 28 25 25 26 25 24 23 22 21 20 18 16 14 12 12 11 12 12 12 11 12 13 12 13 15 15 14 14 14 14 14 14
5 4 8 3 5 4 5 3 7 4 4 2 1 0 5 28 30 25 22 21 26 28 27 25 24 23 22 20 18 16 15 14 13 13 13 12 12 12 12 12 12 13 13 13 13 13 13 12 11
3 5 5 2 1 4 4 1 2 7 3 7 8 6 9 16 21 21 23 27 31 30 28 28 25 25 24 23 21 19 18 16 15 14 15 14 14 14 13 13 13 14 15 14 14 13 11 9 9
3 1 5 5 1 4 6 3 2 5 7 4 9 9 13 11 19 22 26 30 30 31 31 30 28 28 26 25 25 23 22 20 19 18 18 17 17 16 15 15 15 15 17 15 14 13 12 11 11
2 3 3 3 3 3 3 2 4 7 7 3 5 10 15 15 22 25 28 31 30 31 32 33 31 30 29 28 28 27 25 24 22 21 20 20 19 18 17 16 16 16 17 17 16 14 13 13 12
4 4 3 1 2 2 3 2 2 3 3 3 7 11 11 12 24 19 23 31 33 34 34 34 34 32 31 31 30 29 27 26 25 25 24 23 21 19 18 18 18 19 19 18 17 16 14 14 14
4 3 2 2 2 2 3 4 7 5 3 5 7 8 9 14 15 26 36 35 39 38 36 36 36 34 34 33 32 31 30 28 27 28 28 27 25 23 21 21 22 21 23 22 19 18 18 17 17
5 5 1 1 4 1 3 7 3 3 2 6 7 8 9 11 22 31 33 37 37 38 37 37 38 37 37 36 34 34 32 29 28 26 28 30 30 28 26 24 24 25 25 25 23 22 21 20 20
6 3 3 5 6 2 2 6 4 3 5 7 5 8 9 10 15 33 36 36 37 39 39 37 40 41 40 37 36 36 35 33 31 29 31 32 34 33 31 31 29 28 28 28 26 24 22 22 22
6 3 3 3 2 1 2 9 7 8 3 10 10 9 9 10 16 32 38 39 38 38 39 40 39 42 41 40 37 36 36 36 34 33 33 34 34 36 35 35 33 32 31 32 31 27 26 25 24
6 4 4 0 1 2 5 7 12 10 4 10 10 10 10 13 14 27 28 31 37 37 37 39 41 43 41 39 38 38 39 40 37 35 34 33 34 36 37 37 37 37 37 37 37 34 29 26 25
4 3 1 1 1 1 5 11 11 11 7 8 9 10 11 7 6 14 19 23 29 37 40 39 41 41 43 42 41 34 31 34 40 39 37 35 36 36 36 38 39 38 39 37 38 38 32 30 28
2 4 3 3 2 3 5 8 6 5 3 5 8 8 7 9 10 7 10 17 22 27 34 40 42 43 43 43 34 30 28 30 31 37 39 39 37 37 36 37 37 37 38 41 43 42 41 32 36
4 5 5 4 3 3 2 5 6 5 10 7 9 7 9 8 5 5 7 9 12 22 25 31 37 40 41 37 36 38 31 28 34 36 39 42 40 39 39 39 40 42 41 43 44 44 43 31 29
4 4 5 3 4 3 4 1 7 4 7 8 8 5 6 8 7 8 11 6 4 3 10 18 26 31 33 35 36 36 33 34 34 31 32 31 34 36 38 39 40 42 42 43 43 41 40 42 29
8 6 7 5 3 1 5 5 5 3 2 2 5 6 7 8 8 7 10 12 13 11 5 4 14 21 25 27 30 34 36 37 34 33 31 31 31 33 37 39 40 42 42 42 43 42 41 44 44
4 6 2 3 2 5 1 2 8 6 5 3 6 6 8 8 8 8 9 13 14 14 10 6 5 11 16 20 24 29 32 33 33 33 33 33 32 32 34 36 39 40 41 41 41 40 42 43 42
5 6 5 7 4 3 2 5 5 5 4 2 3 3 4 7 7 7 8 9 12 11 10 8 5 4 7 13 17 20 24 28 30 31 32 33 34 34 32 33 36 38 38 39 38 39 41 42 43
5 3 5 7 3 3 3 6 10 5 6 6 7 7 8 8 6 7 8 11 11 11 11 9 6 4 2 6 11 15 19 23 26 27 28 31 32 32 31 30 31 34 37 37 34 34 37 39 41
4 7 3 3 2 3 4 4 5 3 6 4 7 6 5 5 7 7 10 13 12 11 10 8 7 7 7 8 9 11 13 17 20 23 27 29 31 32 32 32 32 32 34 35 37 36 34 35 36
3 3 4 4 4 5 1 5 6 5 8 9 6 6 5 4 4 5 8 9 8 8 10 11 13 13 14 15 16 16 17 17 19 21 25 27 28 30 32 33 33 34 34 34 36 38 35 35 36
2 6 6 5 4 2 3 5 4 9 8 9 5 6 5 3 6 6 10 13 16 15 15 14 15 16 17 19 19 19 20 21 23 26 27 29 31 31 32 33 33 33 34 34 34 35 35 36 37

GFSSGP_925_spd_072.txt.gz
Wind_Speed
6 6 3 5 4 5 1 3 1 3 2 1 3 5 5 2 4 3 4 10 23 25 21 17 15 12 14 14 13 13 13 15 16 15 18 15 15 16 16 16 18 18 17 16 16 17 18 19 20
4 3 4 3 5 3 4 3 5 5 4 7 4 3 4 1 2 5 15 16 27 26 22 19 16 14 14 13 12 12 13 13 15 15 16 15 15 15 15 15 17 17 16 16 16 16 17 17 18
1 2 3 4 3 4 4 5 6 2 7 1 3 3 4 3 2 18 6 26 29 26 22 20 18 15 14 12 12 13 13 13 15 16 14 14 14 14 15 14 15 15 14 14 15 16 16 17 18
3 6 4 4 3 2 3 3 4 5 2 2 3 5 1 2 9 11 17 31 28 25 21 19 17 15 15 14 14 14 14 13 14 14 13 13 14 13 15 14 15 13 12 13 14 14 14 17 20
5 3 4 3 2 2 3 1 6 2 1 2 2 3 2 4 4 13 28 32 28 24 21 18 16 16 15 14 13 13 14 14 14 14 13 12 12 12 14 14 13 13 12 13 14 14 15 16 17
4 3 4 2 2 4 1 4 5 3 1 2 4 5 4 2 11 22 27 31 26 25 22 19 17 16 14 14 13 13 13 13 14 13 11 10 12 12 13 13 14 13 12 13 13 13 14 13 13
5 4 4 4 3 2 3 6 3 6 2 3 7 5 2 2 12 27 27 28 25 23 22 21 20 17 15 14 13 12 12 12 13 13 11 11 11 12 12 12 13 13 12 12 13 13 14 12 13
5 4 4 2 4 4 4 5 1 5 5 3 2 4 3 6 16 26 25 25 24 23 23 22 21 20 17 15 12 12 11 10 11 12 11 10 11 11 12 12 13 12 11 12 13 12 11 12 14
3 4 2 7 6 3 4 4 1 1 5 2 4 4 2 19 22 23 23 22 23 23 23 23 22 21 19 16 14 12 11 10 11 11 11 11 10 11 11 11 13 12 11 12 12 11 10 11 12
4 4 8 5 5 4 6 3 7 4 3 2 3 2 5 25 28 25 21 18 18 22 25 25 24 23 21 19 17 15 13 13 12 11 11 10 10 11 11 11 13 12 11 11 10 10 10 10 9
3 4 5 3 3 5 7 2 3 6 3 7 9 6 10 15 21 22 22 24 24 26 27 27 25 24 23 22 20 18 16 15 14 13 12 11 12 12 11 11 11 11 11 10 10 10 9 8 7
4 2 3 3 2 4 6 5 3 6 5 3 8 5 10 11 19 22 25 30 30 29 29 27 26 26 25 24 23 21 19 18 17 16 14 13 13 12 12 11 11 11 10 10 10 9 8 7 7
3 3 2 2 5 4 4 1 5 6 7 4 4 7 11 13 19 23 24 27 29 29 29 30 29 27 27 25 24 22 22 20 19 17 16 15 14 14 13 12 12 12 12 11 11 10 9 8 9
4 4 3 2 3 2 0 1 1 2 4 4 2 7 8 10 21 15 22 30 30 30 32 31 31 29 28 28 26 25 23 23 22 21 19 18 17 16 15 14 14 14 15 13 11 11 10 10 10
5 4 2 1 1 1 1 4 8 3 3 2 5 6 6 11 9 24 34 33 36 34 31 33 33 32 31 30 29 27 25 24 24 24 22 21 20 18 17 16 16 16 16 17 16 16 15 15 14
5 5 3 2 4 1 3 8 2 4 2 6 6 7 8 10 21 27 28 31 33 33 34 33 33 34 34 33 31 30 27 26 26 24 24 24 22 21 19 20 19 18 19 20 19 19 19 18 18
7 3 3 2 3 2 3 6 3 2 4 5 6 8 8 9 14 30 32 33 32 33 34 34 34 36 37 35 34 32 30 29 27 26 25 23 24 26 25 25 23 23 23 24 24 22 21 20 19
5 3 3 3 1 1 0 10 7 7 5 9 9 8 9 9 15 27 31 35 34 33 33 34 35 36 37 37 34 33 32 32 32 30 29 27 25 27 30 30 29 27 27 27 27 28 25 24 22
6 5 3 1 1 3 5 7 12 9 5 10 11 9 9 11 12 23 26 26 30 34 34 34 35 37 36 35 32 30 31 32 34 34 32 30 29 28 31 33 33 33 33 33 32 32 30 28 24
5 4 2 1 2 2 4 10 11 10 8 7 7 9 9 7 7 15 16 19 26 30 35 36 37 36 38 38 39 31 27 26 34 35 36 34 32 30 30 33 36 35 36 35 36 36 33 31 29
3 6 4 3 1 3 5 8 6 4 3 5 5 6 5 8 9 8 9 8 15 22 29 34 38 38 38 40 31 30 25 25 25 31 35 37 37 34 33 34 35 37 37 37 39 38 36 31 35
5 6 5 6 4 3 3 5 6 5 9 5 8 7 7 8 6 6 7 4 4 12 19 24 29 32 34 34 35 36 28 25 31 31 34 36 37 36 34 35 35 38 36 38 39 37 39 32 28
3 4 5 4 4 3 3 2 7 4 5 5 7 8 7 6 6 8 11 11 10 6 4 12 19 23 27 29 31 34 31 31 30 28 29 30 31 31 34 36 38 39 39 39 39 37 36 38 30
9 7 8 5 3 1 3 4 5 3 2 3 3 7 7 8 7 8 10 12 15 13 10 3 5 12 16 20 25 28 30 32 30 29 29 29 27 27 28 30 34 36 37 38 38 39 40 41 41
4 6 2 2 2 5 2 2 8 4 5 3 5 6 6 6 7 7 8 15 16 17 15 12 7 3 7 12 16 20 23 25 26 26 26 27 26 26 27 27 31 35 35 36 37 39 41 41 40
6 6 5 7 4 2 2 5 5 2 6 1 3 3 6 8 6 8 10 14 16 17 18 16 13 9 3 2 7 11 15 19 21 22 22 23 24 25 24 25 29 32 34 36 36 38 39 39 40
5 4 5 7 3 3 3 6 4 5 6 5 7 7 7 7 7 7 13 15 19 19 19 17 16 15 12 9 5 5 8 12 16 18 19 21 21 22 22 24 26 28 30 31 31 31 34 36 38
3 8 3 3 3 3 3 4 5 1 4 4 7 7 6 6 8 8 14 16 17 18 18 18 18 17 16 14 13 12 11 11 13 16 17 18 19 20 21 22 25 28 29 31 31 31 33 34 35
3 3 4 5 4 5 2 5 6 8 6 7 6 3 6 6 6 6 12 17 18 18 19 18 19 18 18 16 15 14 14 14 14 16 18 19 20 21 22 23 24 26 28 29 32 35 35 32 33
1 6 6 5 4 1 3 5 3 8 7 6 5 5 5 6 5 6 13 18 21 21 22 21 20 20 20 19 19 18 17 17 18 19 20 20 22 23 25 25 26 27 27 28 29 33 35 33 32

GFSSGP_925_spd_075.txt.gz
Wind_Speed
6 7 5 6 4 4 2 2 0 3 2 1 4 4 4 2 3 1 5 11 22 24 22 19 13 14 13 13 12 13 15 15 16 17 16 16 16 16 17 18 18 16 15 17 18 18 19 19 21
5 5 6 2 4 3 2 2 4 4 2 6 4 2 2 2 1 5 13 18 26 24 21 20 16 16 14 13 12 13 14 14 14 15 16 16 15 15 16 17 17 16 16 16 15 16 17 17 18
3 6 3 4 3 3 3 4 4 2 6 1 3 3 3 4 1 15 7 26 27 23 20 18 15 15 14 13 13 14 15 14 15 15 14 15 14 14 15 16 16 14 15 14 15 15 17 18 18
4 6 4 3 2 2 3 2 4 5 2 1 2 4 1 2 8 9 19 29 27 23 20 18 15 14 13 12 14 15 16 16 14 13 12 14 13 14 15 15 14 13 14 13 14 15 16 20 17
6 3 3 2 0 1 2 2 6 5 3 1 1 3 2 2 6 13 26 30 28 24 20 18 15 13 14 13 14 15 15 16 13 11 11 11 12 13 13 14 13 12 13 13 14 16 17 16 15
3 3 3 2 1 2 1 5 6 3 3 1 3 3 2 2 10 20 30 31 27 24 21 19 16 14 14 13 13 14 14 16 14 11 9 11 11 12 12 13 12 12 12 12 13 15 14 12 13
5 3 3 4 2 2 3 5 5 4 5 3 6 4 1 4 10 25 31 29 25 22 21 19 18 15 13 13 13 13 14 15 14 11 10 11 11 12 12 14 12 12 12 13 13 14 13 12 12
5 4 4 1 3 2 5 4 1 4 4 3 2 3 3 5 17 23 27 27 24 23 21 20 19 17 16 14 13 13 13 13 13 12 10 10 11 11 11 14 12 12 11 10 11 10 10 12 12
4 4 3 6 6 3 3 4 0 1 5 2 5 3 2 19 23 23 22 23 22 22 22 21 21 19 17 15 14 13 12 12 11 10 9 9 9 10 10 12 12 10 11 10 9 8 9 10 10
4 4 7 5 4 4 5 3 6 3 2 2 1 1 5 22 26 22 19 19 19 21 23 22 22 21 19 17 15 14 13 12 11 10 9 9 9 9 10 11 11 9 11 10 8 8 9 8 8
3 4 5 3 2 5 7 2 4 6 3 7 7 6 10 16 19 21 21 24 21 19 22 25 25 23 22 20 18 16 14 13 13 11 11 10 10 10 10 10 10 10 10 8 8 9 8 6 5
5 2 4 3 4 4 6 6 3 5 5 1 6 7 12 15 20 24 23 21 20 21 23 26 26 25 24 23 21 19 17 16 15 14 13 12 12 11 11 10 9 9 8 8 8 8 7 5 4
3 3 4 4 6 4 5 2 3 6 5 1 2 9 12 15 18 20 24 28 24 23 25 27 27 26 26 23 23 21 20 19 16 16 14 13 13 12 12 10 10 9 9 8 8 7 6 5 5
3 5 4 4 3 3 3 1 1 1 4 4 5 5 7 12 15 16 22 29 29 29 28 26 28 27 25 25 23 22 22 20 19 18 16 15 14 14 13 12 11 11 10 10 9 8 7 7 7
5 5 2 4 1 2 1 3 7 3 3 2 5 4 6 11 12 23 28 29 32 31 29 29 30 30 29 27 24 23 22 21 21 21 19 18 17 16 14 13 13 12 13 14 14 14 14 13 12
5 5 4 1 2 2 3 7 3 4 3 6 6 5 7 7 20 25 27 28 31 32 32 30 31 31 31 30 26 25 23 24 23 22 22 22 20 18 17 15 14 15 16 17 17 17 17 16 16
6 4 4 1 1 2 2 6 2 1 5 4 6 6 6 7 14 25 29 29 30 32 33 33 32 33 33 32 30 27 25 24 25 25 23 23 23 20 20 20 19 19 20 21 21 22 21 21 21
6 5 1 3 2 2 1 8 8 6 4 8 8 7 7 8 13 17 22 29 30 30 31 32 33 33 33 33 33 30 26 24 23 24 25 22 25 25 26 24 23 25 25 25 25 27 25 25 24
7 5 5 1 1 2 4 7 11 7 5 9 8 8 7 9 14 16 17 19 24 31 32 32 32 35 34 33 30 26 29 28 27 26 26 26 25 27 27 30 29 29 31 31 30 29 29 28 25
5 6 3 2 2 3 1 10 10 7 6 4 5 8 7 6 7 14 12 12 22 26 31 33 34 33 34 35 30 23 23 26 29 29 28 30 30 29 29 30 31 31 33 34 34 33 31 30 30
2 6 5 4 2 3 3 7 6 2 3 5 4 4 4 5 7 7 9 5 8 17 23 27 32 34 33 33 29 24 18 22 21 27 29 31 32 33 33 31 32 33 33 35 36 37 37 29 34
5 4 6 7 4 2 3 4 5 3 7 5 6 6 5 6 5 6 10 10 7 2 11 18 22 26 28 28 29 28 23 23 25 23 27 27 26 29 32 35 34 35 34 35 37 37 37 33 27
3 5 6 4 5 3 3 2 7 3 2 3 4 5 5 5 5 6 10 12 13 11 4 6 13 16 20 24 27 28 24 28 26 24 24 24 24 23 27 31 33 34 35 35 35 35 35 36 31
10 7 8 5 3 1 1 4 5 3 3 2 3 4 5 6 6 8 12 16 19 18 17 11 6 5 8 12 17 22 25 26 25 25 24 23 22 22 22 24 27 30 32 35 35 36 37 37 38
4 6 3 2 2 4 2 3 8 3 2 2 2 5 5 5 6 7 11 19 25 26 24 21 17 13 6 4 7 13 15 16 17 18 19 20 20 21 21 21 24 26 28 31 31 33 35 36 39
6 6 5 7 4 2 2 5 5 2 5 2 4 5 6 7 6 7 12 19 24 25 25 25 24 21 15 10 5 1 4 8 11 12 14 15 17 18 17 18 20 23 25 27 30 31 35 36 39
5 5 4 8 2 3 3 6 5 3 5 5 6 6 7 6 6 7 13 19 22 24 23 22 22 21 19 16 13 10 7 5 6 7 9 11 12 14 15 17 18 20 22 24 26 28 32 34 36
4 8 4 3 3 3 3 5 5 5 5 5 6 7 6 5 7 7 16 21 24 24 23 24 24 24 21 20 18 15 13 11 10 9 9 10 11 13 15 16 19 20 21 23 25 29 31 32 34
3 3 5 5 4 5 3 6 6 9 8 10 8 6 7 7 7 6 15 21 23 24 25 24 24 23 23 21 19 18 17 16 15 14 14 14 15 15 16 17 20 22 23 23 25 29 32 30 32
1 6 6 5 5 1 3 5 1 6 7 7 7 7 6 7 6 8 15 20 22 23 23 23 22 23 21 20 19 18 17 18 18 19 19 19 19 19 20 20 21 22 23 23 24 27 29 32 32